Du Bois, PA

8:20 PM EST on December 07, 2019 (GMT -0500)
Du Bois-Jefferson County

Weather History for KDUJ - October, 2019

Change the Weather History Date:

Thursday, October 3, 2019

  Actual Average Record
Temperature  
Mean Temperature 68 °F 53 °F  
Max Temperature 82 °F 63 °F 80 °F (2005)
Min Temperature 55 °F 43 °F 26 °F (1974)
Degree Days  
Heating Degree Days 0 12  
Month to date heating degree days 0 35  
Since 1 July heating degree days 103 281  
Cooling Degree Days 4 0  
Month to date cooling degree days 23 0  
Year to date cooling degree days 430 360  
Growing Degree Days 18 (Base 50)    
Moisture  
Dew Point 61 °F    
Average Humidity 89    
Maximum Humidity 100    
Minimum Humidity 58    
Precipitation  
Precipitation 0.14 in 0.10 in 3.20 in (1998)
Month to date precipitation 0.44 0.31  
Year to date precipitation 36.84 33.55  
Sea Level Pressure  
Sea Level Pressure 29.97 in    
Wind  
Wind Speed 7 mph ()    
Max Wind Speed 20 mph    
Max Gust Speed 28 mph    
Visibility 6.4 miles    
Events Fog , Rain , Thunderstorm    
T = Trace of Precipitation, MM = Missing Value Source: Averaged Metar Reports

Daily Weather History Graph

Daily Weather History Graph

Search for Another Location

Airport or City:

Astronomy

Oct. 03, 2019 Rise Set
Actual Time 7:14 AM EDT 6:54 PM EDT
Civil Twilight 6:46 AM EDT 7:21 PM EDT
Nautical Twilight 6:14 AM EDT 7:53 PM EDT
Astronomical Twilight 5:42 AM EDT 8:26 PM EDT
Moon 12:46 PM EDT (10/3) 10:29 PM EDT (10/3)
Length of Visible Light 12h 35m
Length of Day
11h 40m
Waxing Crescent, 29% of the Moon is Illuminated
Oct 3
Waxing Crescent
Oct 5
First Quarter
Oct 13
Full
Oct 21
Last Quarter
Oct 27
New

Hourly Weather History & Observations

Time (EDT) Temp. Heat Index Dew Point Humidity Pressure Visibility Wind Dir Wind Speed Gust Speed Precip Events Conditions
12:05 AM 66.0 °F - 64.9 °F 96% 29.97 in 5.0 mi Calm Calm - N/A   Overcast
12:25 AM 66.0 °F - 64.9 °F 96% 29.97 in 5.0 mi East 3.5 mph - N/A   Overcast
12:37 AM 66.0 °F - 64.9 °F 96% 29.97 in 4.0 mi East 3.5 mph - N/A   Overcast
12:53 AM 66.0 °F - 64.9 °F 96% 29.93 in 7.0 mi NE 4.6 mph - N/A   Overcast
1:53 AM 62.1 °F - 60.1 °F 93% 29.94 in 5.0 mi East 10.4 mph - 0.00 in Rain Light Rain
2:30 AM 60.1 °F - 59.0 °F 96% 29.98 in 8.0 mi ENE 9.2 mph - 0.01 in   Overcast
2:53 AM 59.0 °F - 57.0 °F 93% 29.94 in 9.0 mi East 10.4 mph - 0.01 in   Overcast
3:53 AM 57.0 °F - 55.9 °F 96% 29.95 in 10.0 mi East 9.2 mph - N/A   Overcast
4:53 AM 57.0 °F - 55.0 °F 93% 29.97 in 10.0 mi East 6.9 mph - N/A   Overcast
5:53 AM 55.9 °F - 54.0 °F 93% 29.97 in 10.0 mi ESE 6.9 mph - N/A   Overcast
6:03 AM 55.9 °F - 54.0 °F 93% 30.00 in 10.0 mi ESE 5.8 mph - N/A   Overcast
6:53 AM 55.0 °F - 54.0 °F 96% 30.00 in 2.5 mi ESE 8.1 mph - N/A   Overcast
7:14 AM 55.0 °F - 54.0 °F 96% 30.02 in 1.8 mi ESE 6.9 mph - N/A   Overcast
7:48 AM 55.4 °F - 53.6 °F 94% 30.02 in 0.8 mi ESE 5.8 mph - 0.02 in Rain Light Rain
7:53 AM 55.0 °F - 54.0 °F 96% 29.99 in 0.8 mi ESE 8.1 mph - 0.03 in Rain Light Rain
8:00 AM 55.0 °F - 54.0 °F 96% 30.02 in 1.2 mi ESE 5.8 mph - 0.00 in Rain Light Rain
8:38 AM 55.0 °F - 54.0 °F 96% 30.01 in 0.5 mi ESE 5.8 mph - 0.00 in Fog Fog
8:53 AM 55.0 °F - 55.0 °F 100% 29.99 in 0.2 mi ESE 8.1 mph - 0.00 in Fog Fog
9:38 AM 55.9 °F - 55.0 °F 97% 30.01 in 0.8 mi ESE 8.1 mph - N/A   Mist
9:53 AM 55.9 °F - 55.0 °F 97% 29.99 in 0.2 mi ESE 6.9 mph - N/A Fog Fog
10:26 AM 57.0 °F - 55.9 °F 96% 30.00 in 0.5 mi ESE 4.6 mph - N/A Fog Fog
10:40 AM 57.0 °F - 55.9 °F 96% 30.00 in 0.2 mi SE 6.9 mph - N/A Fog Fog
10:53 AM 57.0 °F - 55.9 °F 96% 29.98 in 0.2 mi SE 5.8 mph - N/A Fog Fog
11:53 AM 60.1 °F - 59.0 °F 96% 29.96 in 0.5 mi SE 5.8 mph - N/A Fog Fog
12:05 PM 61.0 °F - 60.1 °F 97% 29.98 in 1.8 mi ESE 4.6 mph - N/A   Overcast
12:09 PM 61.0 °F - 60.1 °F 97% 29.98 in 3.0 mi SE 4.6 mph - N/A   Overcast
12:53 PM 66.0 °F - 63.0 °F 90% 29.94 in 8.0 mi Variable 4.6 mph - N/A   Overcast
1:13 PM 71.1 °F - 66.9 °F 87% 29.96 in 10.0 mi Variable 4.6 mph - N/A   Mostly Cloudy
1:27 PM 73.0 °F - 66.9 °F 81% 29.95 in 10.0 mi South 8.1 mph - N/A   Mostly Cloudy
1:53 PM 75.9 °F - 69.1 °F 79% 29.91 in 10.0 mi South 5.8 mph - N/A   Partly Cloudy
2:23 PM 78.1 °F - 70.0 °F 76% 29.92 in 10.0 mi SSW 6.9 mph - N/A   Mostly Cloudy
2:33 PM 80.1 °F 83.2 °F 70.0 °F 71% 29.92 in 10.0 mi SW 9.2 mph - N/A   Mostly Cloudy
2:53 PM 81.0 °F 83.8 °F 68.0 °F 65% 29.88 in 10.0 mi SW 15.0 mph 23.0 mph N/A   Scattered Clouds
3:53 PM 80.1 °F 82.1 °F 66.0 °F 62% 29.86 in 10.0 mi SW 12.7 mph - N/A   Overcast
4:53 PM 80.1 °F 81.7 °F 64.0 °F 58% 29.84 in 10.0 mi SW 16.1 mph 24.2 mph N/A   Mostly Cloudy
5:53 PM 73.0 °F - 66.0 °F 79% 29.90 in 6.0 mi WNW 12.7 mph - 0.02 in Rain Light Rain
5:57 PM 72.0 °F - 66.9 °F 84% 29.93 in 2.5 mi West 13.8 mph - 0.03 in Rain , Thunderstorm Rain
6:05 PM 71.1 °F - 66.9 °F 87% 29.92 in 1.5 mi WSW 10.4 mph 23.0 mph 0.08 in Rain , Thunderstorm Rain
6:10 PM 70.0 °F - 68.0 °F 93% 29.92 in 3.0 mi WSW 10.4 mph - 0.08 in Rain Light Rain
6:53 PM 70.0 °F - 68.0 °F 93% 29.92 in 10.0 mi West 8.1 mph - 0.08 in   Mostly Cloudy
7:35 PM 70.0 °F - 66.9 °F 90% 29.96 in 10.0 mi WNW 9.2 mph - N/A   Overcast
7:53 PM 70.0 °F - 66.0 °F 87% 29.95 in 10.0 mi WNW 12.7 mph 20.7 mph N/A   Mostly Cloudy
8:07 PM 68.0 °F - 64.9 °F 90% 29.97 in 10.0 mi WNW 11.5 mph 20.7 mph N/A   Scattered Clouds
8:19 PM 69.1 °F - 64.0 °F 84% 29.97 in 10.0 mi WNW 11.5 mph - N/A   Mostly Cloudy
8:50 PM 68.0 °F - 64.4 °F 88% 29.99 in 10.0 mi NW 12.7 mph 19.6 mph N/A   Overcast
8:53 PM 66.9 °F - 64.0 °F 90% 29.98 in 10.0 mi WNW 10.4 mph 19.6 mph N/A   Overcast
9:24 PM 66.0 °F - 62.1 °F 87% 30.00 in 10.0 mi WNW 16.1 mph 24.2 mph N/A   Overcast
9:42 PM 64.9 °F - 60.1 °F 84% 30.00 in 10.0 mi WNW 15.0 mph 20.7 mph N/A   Scattered Clouds
9:53 PM 64.0 °F - 60.1 °F 87% 30.00 in 10.0 mi WNW 11.5 mph - N/A   Scattered Clouds
10:05 PM 64.0 °F - 60.1 °F 87% 30.01 in 10.0 mi NW 6.9 mph - N/A   Mostly Cloudy
10:42 PM 62.1 °F - 59.0 °F 90% 30.01 in 10.0 mi WNW 10.4 mph - N/A   Partly Cloudy
10:53 PM 62.1 °F - 57.9 °F 86% 30.01 in 10.0 mi WNW 9.2 mph - N/A   Partly Cloudy
11:53 PM 61.0 °F - 55.0 °F 81% 30.02 in 10.0 mi NW 10.4 mph 19.6 mph N/A   Mostly Cloudy